Time,TemperatureF,DewpointF,PressureIn,WindDirection,WindDirectionDegrees,WindSpeedMPH,WindSpeedGustMPH,Humidity,HourlyPrecipIn,Conditions,Clouds,dailyrainin,SoftwareType,DateUTC
2013-08-24 00:01:00,61.0,55.0,30.19,ESE,123,0.0,1.0,81,0.00,,,0.00,meteohub,2013-08-24 04:01:00,
2013-08-24 00:06:00,60.4,54.5,30.19,ESE,123,0.0,1.0,81,0.00,,,0.00,meteohub,2013-08-24 04:06:00,
2013-08-24 00:11:00,60.1,54.3,30.19,SE,124,0.0,1.0,81,0.00,,,0.00,meteohub,2013-08-24 04:11:00,
2013-08-24 00:16:00,59.7,54.5,30.19,SE,124,0.0,1.0,83,0.00,,,0.00,meteohub,2013-08-24 04:16:00,
2013-08-24 00:21:00,59.4,54.1,30.19,ESE,123,0.0,1.0,83,0.00,,,0.00,meteohub,2013-08-24 04:21:00,
2013-08-24 00:26:00,59.2,54.0,30.19,ESE,123,0.0,1.0,83,0.00,,,0.00,meteohub,2013-08-24 04:26:00,
2013-08-24 00:31:00,58.8,53.6,30.19,ESE,123,0.0,1.0,83,0.00,,,0.00,meteohub,2013-08-24 04:31:00,
2013-08-24 00:36:00,58.8,54.3,30.19,SE,124,0.0,0.0,85,0.00,,,0.00,meteohub,2013-08-24 04:36:00,
2013-08-24 00:41:00,58.6,54.1,30.19,ESE,123,0.0,0.0,85,0.00,,,0.00,meteohub,2013-08-24 04:41:00,
2013-08-24 00:46:00,58.6,54.1,30.19,ESE,123,0.0,0.0,85,0.00,,,0.00,meteohub,2013-08-24 04:46:00,
2013-08-24 00:51:00,58.6,54.1,30.19,ENE,75,0.0,0.0,85,0.00,,,0.00,meteohub,2013-08-24 04:51:00,
2013-08-24 00:56:00,58.6,53.8,30.19,NE,51,0.0,2.0,84,0.00,,,0.00,meteohub,2013-08-24 04:56:00,
2013-08-24 01:01:00,59.2,53.6,30.19,ESE,123,0.0,2.0,82,0.00,,,0.00,meteohub,2013-08-24 05:01:00,
2013-08-24 01:07:00,59.7,54.1,30.19,SSE,157,0.0,2.0,82,0.00,,,0.00,meteohub,2013-08-24 05:07:00,
2013-08-24 01:12:00,60.1,54.0,30.19,SSW,201,1.0,2.0,80,0.00,,,0.00,meteohub,2013-08-24 05:12:00,
2013-08-24 01:17:00,60.4,54.0,30.19,South,179,0.0,3.0,79,0.00,,,0.00,meteohub,2013-08-24 05:17:00,
2013-08-24 01:22:00,61.0,54.1,30.19,NW,304,1.0,3.0,78,0.00,,,0.00,meteohub,2013-08-24 05:22:00,
2013-08-24 01:27:00,61.0,53.8,30.19,ESE,113,2.0,3.0,77,0.00,,,0.00,meteohub,2013-08-24 05:27:00,
2013-08-24 01:32:00,61.2,53.6,30.19,SSW,209,4.0,4.0,76,0.00,,,0.00,meteohub,2013-08-24 05:32:00,
2013-08-24 01:37:00,61.3,53.8,30.19,NE,52,1.0,5.0,76,0.00,,,0.00,meteohub,2013-08-24 05:37:00,
2013-08-24 01:42:00,61.5,53.6,30.19,NE,34,0.0,5.0,75,0.00,,,0.00,meteohub,2013-08-24 05:42:00,
2013-08-24 01:47:00,61.5,53.6,30.19,WSW,245,1.0,5.0,75,0.00,,,0.00,meteohub,2013-08-24 05:47:00,
2013-08-24 01:52:00,61.3,53.4,30.19,ENE,68,2.0,5.0,75,0.00,,,0.00,meteohub,2013-08-24 05:52:00,
2013-08-24 01:57:00,61.3,53.4,30.19,ESE,121,2.0,5.0,75,0.00,,,0.00,meteohub,2013-08-24 05:57:00,
2013-08-24 02:02:00,61.2,53.2,30.19,ENE,68,3.0,5.0,75,0.00,,,0.00,meteohub,2013-08-24 06:02:00,
2013-08-24 02:07:00,61.2,53.6,30.19,SSE,151,2.0,5.0,76,0.00,,,0.00,meteohub,2013-08-24 06:07:00,
2013-08-24 02:12:00,61.0,53.4,30.19,ESE,119,1.0,5.0,76,0.00,,,0.00,meteohub,2013-08-24 06:12:00,
2013-08-24 02:17:00,61.0,53.4,30.19,NE,49,0.0,5.0,76,0.00,,,0.00,meteohub,2013-08-24 06:17:00,
2013-08-24 02:22:00,60.8,53.2,30.19,SSW,199,1.0,5.0,76,0.00,,,0.00,meteohub,2013-08-24 06:22:00,
2013-08-24 02:27:00,60.6,53.1,30.19,South,176,1.0,3.0,76,0.00,,,0.00,meteohub,2013-08-24 06:27:00,
2013-08-24 02:32:00,60.4,52.9,30.19,SW,218,1.0,5.0,76,0.00,,,0.00,meteohub,2013-08-24 06:32:00,
2013-08-24 02:37:00,60.4,53.2,30.19,SSW,199,1.0,5.0,77,0.00,,,0.00,meteohub,2013-08-24 06:37:00,
2013-08-24 02:42:00,60.3,52.7,30.19,SSE,152,1.0,5.0,76,0.00,,,0.00,meteohub,2013-08-24 06:42:00,
2013-08-24 02:47:00,60.3,52.7,30.19,East,86,0.0,3.0,76,0.00,,,0.00,meteohub,2013-08-24 06:47:00,
2013-08-24 02:52:00,60.3,52.7,30.19,East,89,0.0,3.0,76,0.00,,,0.00,meteohub,2013-08-24 06:52:00,
2013-08-24 02:57:00,60.1,52.5,30.19,NE,40,2.0,3.0,76,0.00,,,0.00,meteohub,2013-08-24 06:57:00,
2013-08-24 03:02:00,60.1,52.5,30.19,SW,224,1.0,3.0,76,0.00,,,0.00,meteohub,2013-08-24 07:02:00,
2013-08-24 03:07:00,60.1,52.2,30.20,SW,219,1.0,3.0,75,0.00,,,0.00,meteohub,2013-08-24 07:07:00,
2013-08-24 03:12:00,60.1,52.2,30.20,South,175,1.0,3.0,75,0.00,,,0.00,meteohub,2013-08-24 07:12:00,
2013-08-24 03:17:00,60.1,52.2,30.20,East,100,0.0,3.0,75,0.00,,,0.00,meteohub,2013-08-24 07:17:00,
2013-08-24 03:22:00,59.7,51.8,30.19,East,96,1.0,3.0,75,0.00,,,0.00,meteohub,2013-08-24 07:22:00,
2013-08-24 03:27:00,59.5,52.0,30.19,SSW,201,2.0,3.0,76,0.00,,,0.00,meteohub,2013-08-24 07:27:00,
2013-08-24 03:32:00,59.4,51.8,30.20,South,179,0.0,3.0,76,0.00,,,0.00,meteohub,2013-08-24 07:32:00,
2013-08-24 03:37:00,59.4,52.2,30.20,SSE,152,2.0,3.0,77,0.00,,,0.00,meteohub,2013-08-24 07:37:00,
2013-08-24 03:42:00,59.4,52.2,30.20,SSW,193,0.0,3.0,77,0.00,,,0.00,meteohub,2013-08-24 07:42:00,
2013-08-24 03:47:00,59.4,52.2,30.20,ESE,109,1.0,3.0,77,0.00,,,0.00,meteohub,2013-08-24 07:47:00,
2013-08-24 03:52:00,59.2,52.0,30.20,SSE,161,0.0,3.0,77,0.00,,,0.00,meteohub,2013-08-24 07:52:00,
2013-08-24 03:57:00,59.2,52.3,30.20,SSW,205,0.0,3.0,78,0.00,,,0.00,meteohub,2013-08-24 07:57:00,
2013-08-24 04:02:00,59.0,51.8,30.20,ESE,117,1.0,2.0,77,0.00,,,0.00,meteohub,2013-08-24 08:02:00,
2013-08-24 04:07:00,59.0,51.8,30.20,SSW,213,0.0,2.0,77,0.00,,,0.00,meteohub,2013-08-24 08:07:00,
2013-08-24 04:12:00,59.0,52.2,30.20,SSW,195,0.0,2.0,78,0.00,,,0.00,meteohub,2013-08-24 08:12:00,
2013-08-24 04:17:00,59.0,51.8,30.21,SSE,151,0.0,2.0,77,0.00,,,0.00,meteohub,2013-08-24 08:17:00,
2013-08-24 04:22:00,59.0,52.2,30.21,ESE,112,0.0,2.0,78,0.00,,,0.00,meteohub,2013-08-24 08:22:00,
2013-08-24 04:27:00,58.8,52.0,30.21,ESE,110,0.0,2.0,78,0.00,,,0.00,meteohub,2013-08-24 08:27:00,
2013-08-24 04:32:00,58.6,51.8,30.21,ESE,117,0.0,2.0,78,0.00,,,0.00,meteohub,2013-08-24 08:32:00,
2013-08-24 04:37:00,58.6,52.2,30.21,ESE,120,2.0,2.0,79,0.00,,,0.00,meteohub,2013-08-24 08:37:00,
2013-08-24 04:42:00,58.5,52.0,30.21,ESE,109,0.0,3.0,79,0.00,,,0.00,meteohub,2013-08-24 08:42:00,
2013-08-24 04:47:00,58.6,51.8,30.21,SE,131,0.0,3.0,78,0.00,,,0.00,meteohub,2013-08-24 08:47:00,
2013-08-24 04:52:00,58.6,51.8,30.20,SSE,147,0.0,2.0,78,0.00,,,0.00,meteohub,2013-08-24 08:52:00,
2013-08-24 04:57:00,58.6,51.8,30.21,WSW,240,0.0,3.0,78,0.00,,,0.00,meteohub,2013-08-24 08:57:00,
2013-08-24 05:02:00,58.8,52.3,30.21,ESE,105,0.0,3.0,79,0.00,,,0.00,meteohub,2013-08-24 09:02:00,
2013-08-24 05:07:00,58.8,52.3,30.21,ESE,107,1.0,3.0,79,0.00,,,0.00,meteohub,2013-08-24 09:07:00,
2013-08-24 05:12:00,59.2,52.7,30.21,SW,227,0.0,2.0,79,0.00,,,0.00,meteohub,2013-08-24 09:12:00,
2013-08-24 05:17:00,59.4,53.2,30.22,ESE,116,2.0,2.0,80,0.00,,,0.00,meteohub,2013-08-24 09:17:00,
2013-08-24 05:22:00,59.4,53.2,30.22,ESE,119,1.0,4.0,80,0.00,,,0.00,meteohub,2013-08-24 09:22:00,
2013-08-24 05:27:00,59.4,53.2,30.22,ESE,102,2.0,4.0,80,0.00,,,0.00,meteohub,2013-08-24 09:27:00,
2013-08-24 05:32:00,59.5,53.4,30.22,SSE,152,1.0,4.0,80,0.00,,,0.00,meteohub,2013-08-24 09:32:00,
2013-08-24 05:37:00,59.5,53.8,30.22,South,187,0.0,4.0,81,0.00,,,0.00,meteohub,2013-08-24 09:37:00,
2013-08-24 05:42:00,59.4,53.6,30.22,SE,130,3.0,4.0,81,0.00,,,0.00,meteohub,2013-08-24 09:42:00,
2013-08-24 05:47:00,59.5,53.8,30.22,SSE,158,0.0,4.0,81,0.00,,,0.00,meteohub,2013-08-24 09:47:00,
2013-08-24 05:52:00,59.5,53.8,30.22,ENE,77,0.0,4.0,81,0.00,,,0.00,meteohub,2013-08-24 09:52:00,
2013-08-24 05:57:00,59.5,54.0,30.22,South,183,1.0,4.0,82,0.00,,,0.00,meteohub,2013-08-24 09:57:00,
2013-08-24 06:02:00,59.5,54.0,30.22,ESE,112,0.0,3.0,82,0.00,,,0.00,meteohub,2013-08-24 10:02:00,
2013-08-24 06:07:00,59.7,54.1,30.23,SE,141,0.0,4.0,82,0.00,,,0.00,meteohub,2013-08-24 10:07:00,
2013-08-24 06:12:00,59.9,54.7,30.23,SSE,148,0.0,4.0,83,0.00,,,0.00,meteohub,2013-08-24 10:12:00,
2013-08-24 06:17:00,60.1,54.5,30.23,SSE,168,0.0,2.0,82,0.00,,,0.00,meteohub,2013-08-24 10:17:00,
2013-08-24 06:22:00,60.1,54.5,30.23,South,190,0.0,2.0,82,0.00,,,0.00,meteohub,2013-08-24 10:22:00,
2013-08-24 06:27:00,59.9,54.1,30.23,SW,216,1.0,4.0,81,0.00,,,0.00,meteohub,2013-08-24 10:27:00,
2013-08-24 06:32:00,60.1,54.3,30.23,SW,233,1.0,5.0,81,0.00,,,0.00,meteohub,2013-08-24 10:32:00,
2013-08-24 06:37:00,60.4,54.3,30.24,SW,214,0.0,5.0,80,0.00,,,0.00,meteohub,2013-08-24 10:37:00,
2013-08-24 06:42:00,60.4,54.0,30.24,SE,145,0.0,5.0,79,0.00,,,0.00,meteohub,2013-08-24 10:42:00,
2013-08-24 06:47:00,60.4,54.0,30.24,SSE,159,2.0,4.0,79,0.00,,,0.00,meteohub,2013-08-24 10:47:00,
2013-08-24 06:52:00,60.4,54.0,30.24,SSW,192,1.0,4.0,79,0.00,,,0.00,meteohub,2013-08-24 10:52:00,
2013-08-24 06:57:00,60.4,54.0,30.24,South,176,2.0,4.0,79,0.00,,,0.00,meteohub,2013-08-24 10:57:00,
2013-08-24 07:02:00,60.4,54.0,30.24,SSE,165,0.0,5.0,79,0.00,,,0.00,meteohub,2013-08-24 11:02:00,
2013-08-24 07:07:00,60.4,54.0,30.25,SSE,150,0.0,5.0,79,0.00,,,0.00,meteohub,2013-08-24 11:07:00,
2013-08-24 07:12:00,60.3,53.8,30.25,ESE,116,0.0,4.0,79,0.00,,,0.00,meteohub,2013-08-24 11:12:00,
2013-08-24 07:17:00,60.1,53.6,30.25,SE,141,1.0,4.0,79,0.00,,,0.00,meteohub,2013-08-24 11:17:00,
2013-08-24 07:22:00,60.1,53.6,30.25,East,83,0.0,3.0,79,0.00,,,0.00,meteohub,2013-08-24 11:22:00,
2013-08-24 07:27:00,60.1,53.6,30.25,SSE,154,0.0,4.0,79,0.00,,,0.00,meteohub,2013-08-24 11:27:00,
2013-08-24 07:32:00,60.3,53.8,30.25,SSW,192,0.0,4.0,79,0.00,,,0.00,meteohub,2013-08-24 11:32:00,
2013-08-24 07:37:00,60.6,53.8,30.25,SE,133,1.0,4.0,78,0.00,,,0.00,meteohub,2013-08-24 11:37:00,
2013-08-24 07:42:00,61.2,54.0,30.25,SSE,168,0.0,4.0,77,0.00,,,0.00,meteohub,2013-08-24 11:42:00,
2013-08-24 07:47:00,61.5,54.0,30.25,ESE,102,2.0,4.0,76,0.00,,,0.00,meteohub,2013-08-24 11:47:00,
2013-08-24 07:52:00,61.9,53.8,30.26,ENE,62,1.0,5.0,75,0.00,,,0.00,meteohub,2013-08-24 11:52:00,
2013-08-24 07:57:00,62.2,54.1,30.26,SE,129,2.0,5.0,75,0.00,,,0.00,meteohub,2013-08-24 11:57:00,
2013-08-24 08:02:00,62.4,54.0,30.26,East,89,3.0,5.0,74,0.00,,,0.00,meteohub,2013-08-24 12:02:00,
2013-08-24 08:07:00,62.8,54.3,30.26,East,93,2.0,4.0,74,0.00,,,0.00,meteohub,2013-08-24 12:07:00,
2013-08-24 08:12:00,63.1,54.3,30.26,SE,133,1.0,4.0,73,0.00,,,0.00,meteohub,2013-08-24 12:12:00,
2013-08-24 08:17:00,63.7,54.5,30.26,South,179,0.0,4.0,72,0.00,,,0.00,meteohub,2013-08-24 12:17:00,
2013-08-24 08:22:00,63.9,54.7,30.26,NNE,17,3.0,3.0,72,0.00,,,0.00,meteohub,2013-08-24 12:22:00,
2013-08-24 08:27:00,64.2,55.0,30.26,East,84,1.0,4.0,72,0.00,,,0.00,meteohub,2013-08-24 12:27:00,
2013-08-24 08:32:00,64.8,55.2,30.26,SSW,202,1.0,4.0,71,0.00,,,0.00,meteohub,2013-08-24 12:32:00,
2013-08-24 08:37:00,65.1,55.0,30.26,South,174,1.0,4.0,70,0.00,,,0.00,meteohub,2013-08-24 12:37:00,
2013-08-24 08:42:00,65.8,55.8,30.26,ESE,115,3.0,4.0,70,0.00,,,0.00,meteohub,2013-08-24 12:42:00,
2013-08-24 08:47:00,66.2,55.4,30.26,WSW,257,0.0,4.0,68,0.00,,,0.00,meteohub,2013-08-24 12:47:00,
2013-08-24 08:52:00,66.4,55.6,30.26,SSE,152,1.0,6.0,68,0.00,,,0.00,meteohub,2013-08-24 12:52:00,
2013-08-24 08:57:00,66.7,55.0,30.26,ENE,77,1.0,6.0,66,0.00,,,0.00,meteohub,2013-08-24 12:57:00,
2013-08-24 09:02:00,67.1,55.4,30.26,ENE,77,3.0,12.0,66,0.00,,,0.00,meteohub,2013-08-24 13:02:00,
2013-08-24 09:07:00,67.5,55.8,30.26,NE,55,2.0,12.0,66,0.00,,,0.00,meteohub,2013-08-24 13:07:00,
2013-08-24 09:12:00,67.6,55.4,30.26,NE,45,2.0,12.0,65,0.00,,,0.00,meteohub,2013-08-24 13:12:00,
2013-08-24 09:17:00,68.0,55.8,30.26,SW,234,0.0,8.0,65,0.00,,,0.00,meteohub,2013-08-24 13:17:00,
2013-08-24 09:22:00,68.5,55.4,30.26,WSW,245,1.0,9.0,63,0.00,,,0.00,meteohub,2013-08-24 13:22:00,
2013-08-24 09:27:00,68.7,55.6,30.26,WSW,238,1.0,9.0,63,0.00,,,0.00,meteohub,2013-08-24 13:27:00,
2013-08-24 09:32:00,69.4,56.3,30.26,WSW,240,1.0,8.0,63,0.00,,,0.00,meteohub,2013-08-24 13:32:00,
2013-08-24 09:37:00,70.0,56.3,30.26,NE,55,3.0,8.0,62,0.00,,,0.00,meteohub,2013-08-24 13:37:00,
2013-08-24 09:42:00,70.3,57.2,30.26,SSW,199,2.0,7.0,63,0.00,,,0.00,meteohub,2013-08-24 13:42:00,
2013-08-24 09:47:00,70.7,57.0,30.26,ENE,66,3.0,7.0,62,0.00,,,0.00,meteohub,2013-08-24 13:47:00,
2013-08-24 09:52:00,71.1,57.4,30.26,WSW,248,1.0,6.0,62,0.00,,,0.00,meteohub,2013-08-24 13:52:00,
2013-08-24 09:57:00,71.4,56.8,30.26,SW,217,0.0,6.0,60,0.00,,,0.00,meteohub,2013-08-24 13:57:00,
2013-08-24 10:02:00,72.0,58.3,30.25,SSE,167,0.0,6.0,62,0.00,,,0.00,meteohub,2013-08-24 14:02:00,
2013-08-24 10:07:00,72.7,58.5,30.26,SSW,207,2.0,5.0,61,0.00,,,0.00,meteohub,2013-08-24 14:07:00,
2013-08-24 10:12:00,73.0,57.9,30.26,ESE,105,2.0,5.0,59,0.00,,,0.00,meteohub,2013-08-24 14:12:00,
2013-08-24 10:17:00,73.2,58.1,30.26,East,79,1.0,6.0,59,0.00,,,0.00,meteohub,2013-08-24 14:17:00,
2013-08-24 10:22:00,73.0,57.9,30.26,SW,235,1.0,6.0,59,0.00,,,0.00,meteohub,2013-08-24 14:22:00,
2013-08-24 10:27:00,73.0,57.4,30.26,SSW,205,4.0,7.0,58,0.00,,,0.00,meteohub,2013-08-24 14:27:00,
2013-08-24 10:32:00,73.0,58.3,30.25,SW,231,1.0,10.0,60,0.00,,,0.00,meteohub,2013-08-24 14:32:00,
2013-08-24 10:37:00,73.6,57.4,30.25,South,171,1.0,10.0,57,0.00,,,0.00,meteohub,2013-08-24 14:37:00,
2013-08-24 10:42:00,73.6,58.3,30.25,SW,228,1.0,10.0,59,0.00,,,0.00,meteohub,2013-08-24 14:42:00,
2013-08-24 10:47:00,74.1,58.8,30.25,SW,222,1.0,6.0,59,0.00,,,0.00,meteohub,2013-08-24 14:47:00,
2013-08-24 10:52:00,75.0,58.8,30.25,SW,236,3.0,6.0,57,0.00,,,0.00,meteohub,2013-08-24 14:52:00,
2013-08-24 10:57:00,75.4,58.6,30.25,South,179,5.0,6.0,56,0.00,,,0.00,meteohub,2013-08-24 14:57:00,
2013-08-24 11:02:00,74.8,58.1,30.25,South,185,3.0,8.0,56,0.00,,,0.00,meteohub,2013-08-24 15:02:00,
2013-08-24 11:07:00,75.0,58.3,30.25,SSE,165,1.0,8.0,56,0.00,,,0.00,meteohub,2013-08-24 15:07:00,
2013-08-24 11:12:00,75.7,58.5,30.25,East,85,1.0,8.0,55,0.00,,,0.00,meteohub,2013-08-24 15:12:00,
2013-08-24 11:17:00,76.3,58.5,30.25,SSE,168,5.0,8.0,54,0.00,,,0.00,meteohub,2013-08-24 15:17:00,
2013-08-24 11:22:00,76.5,58.6,30.25,SE,125,1.0,5.0,54,0.00,,,0.00,meteohub,2013-08-24 15:22:00,
2013-08-24 11:27:00,77.2,59.2,30.25,SW,228,0.0,5.0,54,0.00,,,0.00,meteohub,2013-08-24 15:27:00,
2013-08-24 11:32:00,77.7,58.6,30.24,NW,317,1.0,5.0,52,0.00,,,0.00,meteohub,2013-08-24 15:32:00,
2013-08-24 11:37:00,77.5,57.4,30.24,SSW,212,2.0,4.0,50,0.00,,,0.00,meteohub,2013-08-24 15:37:00,
2013-08-24 11:42:00,76.8,57.9,30.24,NW,305,6.0,6.0,52,0.00,,,0.00,meteohub,2013-08-24 15:42:00,
2013-08-24 11:47:00,76.5,57.6,30.24,WSW,254,1.0,7.0,52,0.00,,,0.00,meteohub,2013-08-24 15:47:00,
2013-08-24 11:52:00,77.4,56.7,30.24,WNW,285,3.0,7.0,49,0.00,,,0.00,meteohub,2013-08-24 15:52:00,
2013-08-24 11:57:00,77.2,57.0,30.24,South,179,2.0,7.0,50,0.00,,,0.00,meteohub,2013-08-24 15:57:00,
2013-08-24 12:02:00,77.2,58.3,30.24,West,269,4.0,8.0,52,0.00,,,0.00,meteohub,2013-08-24 16:02:00,
2013-08-24 12:07:00,77.2,56.5,30.25,WSW,255,3.0,8.0,49,0.00,,,0.00,meteohub,2013-08-24 16:07:00,
2013-08-24 12:12:00,77.7,56.5,30.25,West,270,4.0,8.0,48,0.00,,,0.00,meteohub,2013-08-24 16:12:00,
2013-08-24 12:17:00,78.1,56.3,30.24,SW,219,1.0,8.0,47,0.00,,,0.00,meteohub,2013-08-24 16:17:00,
2013-08-24 12:22:00,78.3,56.3,30.24,NNW,328,5.0,7.0,47,0.00,,,0.00,meteohub,2013-08-24 16:22:00,
2013-08-24 12:27:00,78.4,56.5,30.24,West,273,1.0,8.0,47,0.00,,,0.00,meteohub,2013-08-24 16:27:00,
2013-08-24 12:32:00,78.6,56.1,30.23,SSW,200,1.0,8.0,46,0.00,,,0.00,meteohub,2013-08-24 16:32:00,
2013-08-24 12:37:00,79.0,55.8,30.23,WSW,248,3.0,8.0,45,0.00,,,0.00,meteohub,2013-08-24 16:37:00,
2013-08-24 12:42:00,78.8,55.6,30.23,West,266,4.0,7.0,45,0.00,,,0.00,meteohub,2013-08-24 16:42:00,
2013-08-24 12:47:00,78.8,56.3,30.23,WSW,257,2.0,10.0,46,0.00,,,0.00,meteohub,2013-08-24 16:47:00,
2013-08-24 12:52:00,79.3,56.8,30.23,West,277,2.0,10.0,46,0.00,,,0.00,meteohub,2013-08-24 16:52:00,
2013-08-24 12:57:00,79.5,55.8,30.23,East,84,4.0,10.0,44,0.00,,,0.00,meteohub,2013-08-24 16:57:00,
2013-08-24 13:03:00,79.2,55.9,30.23,WSW,257,6.0,8.0,45,0.00,,,0.00,meteohub,2013-08-24 17:03:00,
2013-08-24 13:08:00,79.3,55.6,30.23,SSW,203,2.0,9.0,44,0.00,,,0.00,meteohub,2013-08-24 17:08:00,
2013-08-24 13:13:00,79.5,56.3,30.23,North,8,1.0,9.0,45,0.00,,,0.00,meteohub,2013-08-24 17:13:00,
2013-08-24 13:18:00,80.6,56.1,30.23,WSW,249,1.0,9.0,43,0.00,,,0.00,meteohub,2013-08-24 17:18:00,
2013-08-24 13:23:00,81.1,56.5,30.23,West,266,1.0,7.0,43,0.00,,,0.00,meteohub,2013-08-24 17:23:00,
2013-08-24 13:28:00,81.1,55.9,30.22,West,271,4.0,8.0,42,0.00,,,0.00,meteohub,2013-08-24 17:28:00,
2013-08-24 13:33:00,81.0,57.0,30.22,WSW,258,4.0,8.0,44,0.00,,,0.00,meteohub,2013-08-24 17:33:00,
2013-08-24 13:38:00,81.0,55.8,30.22,WNW,285,2.0,8.0,42,0.00,,,0.00,meteohub,2013-08-24 17:38:00,
2013-08-24 13:43:00,80.8,56.1,30.22,SSW,213,2.0,7.0,43,0.00,,,0.00,meteohub,2013-08-24 17:43:00,
2013-08-24 13:48:00,81.1,55.2,30.22,WNW,289,5.0,6.0,41,0.00,,,0.00,meteohub,2013-08-24 17:48:00,
2013-08-24 13:53:00,81.1,55.9,30.22,SW,226,4.0,6.0,42,0.00,,,0.00,meteohub,2013-08-24 17:53:00,
2013-08-24 13:58:00,81.3,54.7,30.22,WSW,237,3.0,6.0,40,0.00,,,0.00,meteohub,2013-08-24 17:58:00,
2013-08-24 14:03:00,81.3,55.4,30.22,NNW,335,2.0,6.0,41,0.00,,,0.00,meteohub,2013-08-24 18:03:00,
2013-08-24 14:08:00,81.3,54.7,30.22,WNW,288,3.0,6.0,40,0.00,,,0.00,meteohub,2013-08-24 18:08:00,
2013-08-24 14:13:00,81.1,55.2,30.22,SE,134,1.0,8.0,41,0.00,,,0.00,meteohub,2013-08-24 18:13:00,
2013-08-24 14:18:00,81.9,55.9,30.21,SSW,201,0.0,8.0,41,0.00,,,0.00,meteohub,2013-08-24 18:18:00,
2013-08-24 14:23:00,81.9,56.5,30.21,WSW,240,1.0,8.0,42,0.00,,,0.00,meteohub,2013-08-24 18:23:00,
2013-08-24 14:28:00,82.0,55.4,30.21,SSW,204,1.0,8.0,40,0.00,,,0.00,meteohub,2013-08-24 18:28:00,
2013-08-24 14:33:00,82.2,55.6,30.21,NNW,337,0.0,8.0,40,0.00,,,0.00,meteohub,2013-08-24 18:33:00,
2013-08-24 14:38:00,82.9,55.4,30.21,North,10,1.0,4.0,39,0.00,,,0.00,meteohub,2013-08-24 18:38:00,
2013-08-24 14:43:00,83.1,56.3,30.21,NW,318,2.0,3.0,40,0.00,,,0.00,meteohub,2013-08-24 18:43:00,
2013-08-24 14:48:00,82.9,56.1,30.21,West,272,3.0,4.0,40,0.00,,,0.00,meteohub,2013-08-24 18:48:00,
2013-08-24 14:53:00,82.2,56.1,30.20,East,86,0.0,5.0,41,0.00,,,0.00,meteohub,2013-08-24 18:53:00,
2013-08-24 14:58:00,82.9,56.8,30.20,SSW,203,3.0,5.0,41,0.00,,,0.00,meteohub,2013-08-24 18:58:00,
2013-08-24 15:03:00,82.9,56.8,30.20,WSW,248,1.0,5.0,41,0.00,,,0.00,meteohub,2013-08-24 19:03:00,
2013-08-24 15:08:00,82.2,56.1,30.20,North,1,5.0,7.0,41,0.00,,,0.00,meteohub,2013-08-24 19:08:00,
2013-08-24 15:13:00,81.9,56.5,30.20,WSW,242,1.0,9.0,42,0.00,,,0.00,meteohub,2013-08-24 19:13:00,
2013-08-24 15:18:00,82.0,56.7,30.20,NNW,346,4.0,9.0,42,0.00,,,0.00,meteohub,2013-08-24 19:18:00,
2013-08-24 15:23:00,82.0,57.4,30.21,NW,323,8.0,14.0,43,0.00,,,0.00,meteohub,2013-08-24 19:23:00,
2013-08-24 15:28:00,82.0,56.7,30.21,NNW,348,7.0,14.0,42,0.00,,,0.00,meteohub,2013-08-24 19:28:00,
2013-08-24 15:33:00,82.0,57.4,30.20,WNW,285,2.0,14.0,43,0.00,,,0.00,meteohub,2013-08-24 19:33:00,
2013-08-24 15:38:00,82.6,57.2,30.20,WSW,252,4.0,12.0,42,0.00,,,0.00,meteohub,2013-08-24 19:38:00,
2013-08-24 15:43:00,81.9,57.2,30.20,WNW,294,8.0,9.0,43,0.00,,,0.00,meteohub,2013-08-24 19:43:00,
2013-08-24 15:48:00,81.7,57.0,30.20,NNW,338,5.0,11.0,43,0.00,,,0.00,meteohub,2013-08-24 19:48:00,
2013-08-24 15:53:00,81.7,57.6,30.20,West,264,3.0,11.0,44,0.00,,,0.00,meteohub,2013-08-24 19:53:00,
2013-08-24 15:58:00,81.9,56.5,30.20,WNW,283,6.0,12.0,42,0.00,,,0.00,meteohub,2013-08-24 19:58:00,
2013-08-24 16:03:00,81.7,57.0,30.19,WSW,251,7.0,12.0,43,0.00,,,0.00,meteohub,2013-08-24 20:03:00,
2013-08-24 16:08:00,81.7,56.3,30.20,SW,220,1.0,12.0,42,0.00,,,0.00,meteohub,2013-08-24 20:08:00,
2013-08-24 16:13:00,82.0,57.4,30.19,NNW,333,6.0,11.0,43,0.00,,,0.00,meteohub,2013-08-24 20:13:00,
2013-08-24 16:18:00,82.4,57.0,30.19,NW,323,1.0,9.0,42,0.00,,,0.00,meteohub,2013-08-24 20:18:00,
2013-08-24 16:23:00,82.6,57.2,30.19,West,280,3.0,9.0,42,0.00,,,0.00,meteohub,2013-08-24 20:23:00,
2013-08-24 16:28:00,82.2,56.8,30.19,NNE,14,3.0,9.0,42,0.00,,,0.00,meteohub,2013-08-24 20:28:00,
2013-08-24 16:34:00,81.9,56.5,30.19,West,271,5.0,9.0,42,0.00,,,0.00,meteohub,2013-08-24 20:34:00,
2013-08-24 16:39:00,81.7,56.3,30.19,West,264,4.0,9.0,42,0.00,,,0.00,meteohub,2013-08-24 20:39:00,
2013-08-24 16:44:00,81.7,57.6,30.19,West,275,2.0,9.0,44,0.00,,,0.00,meteohub,2013-08-24 20:44:00,
2013-08-24 16:49:00,82.0,57.4,30.19,NNW,335,2.0,9.0,43,0.00,,,0.00,meteohub,2013-08-24 20:49:00,
2013-08-24 16:54:00,82.4,57.7,30.18,West,274,5.0,8.0,43,0.00,,,0.00,meteohub,2013-08-24 20:54:00,
2013-08-24 16:59:00,82.2,57.6,30.18,South,175,1.0,6.0,43,0.00,,,0.00,meteohub,2013-08-24 20:59:00,
2013-08-24 17:04:00,82.2,57.6,30.18,WNW,282,3.0,6.0,43,0.00,,,0.00,meteohub,2013-08-24 21:04:00,
2013-08-24 17:09:00,82.6,58.5,30.18,WNW,285,5.0,6.0,44,0.00,,,0.00,meteohub,2013-08-24 21:09:00,
2013-08-24 17:14:00,82.0,57.9,30.18,NW,304,5.0,7.0,44,0.00,,,0.00,meteohub,2013-08-24 21:14:00,
2013-08-24 17:19:00,82.0,58.6,30.18,West,276,2.0,7.0,45,0.00,,,0.00,meteohub,2013-08-24 21:19:00,
2013-08-24 17:24:00,82.2,58.8,30.18,SSW,213,5.0,7.0,45,0.00,,,0.00,meteohub,2013-08-24 21:24:00,
2013-08-24 17:29:00,81.9,58.5,30.18,WNW,285,1.0,7.0,45,0.00,,,0.00,meteohub,2013-08-24 21:29:00,
2013-08-24 17:34:00,82.2,58.1,30.18,WSW,252,3.0,7.0,44,0.00,,,0.00,meteohub,2013-08-24 21:34:00,
2013-08-24 17:39:00,81.9,57.7,30.18,WNW,295,5.0,7.0,44,0.00,,,0.00,meteohub,2013-08-24 21:39:00,
2013-08-24 17:44:00,81.3,58.6,30.18,SSE,155,2.0,7.0,46,0.00,,,0.00,meteohub,2013-08-24 21:44:00,
2013-08-24 17:49:00,82.2,58.8,30.19,WNW,288,4.0,8.0,45,0.00,,,0.00,meteohub,2013-08-24 21:49:00,
2013-08-24 17:54:00,81.9,58.5,30.19,SW,218,2.0,8.0,45,0.00,,,0.00,meteohub,2013-08-24 21:54:00,
2013-08-24 17:59:00,81.9,58.5,30.19,SW,234,2.0,8.0,45,0.00,,,0.00,meteohub,2013-08-24 21:59:00,
2013-08-24 18:04:00,81.7,58.8,30.19,WNW,282,2.0,7.0,46,0.00,,,0.00,meteohub,2013-08-24 22:04:00,
2013-08-24 18:09:00,81.9,58.5,30.18,West,271,2.0,7.0,45,0.00,,,0.00,meteohub,2013-08-24 22:09:00,
2013-08-24 18:14:00,81.3,57.9,30.18,West,260,1.0,5.0,45,0.00,,,0.00,meteohub,2013-08-24 22:14:00,
2013-08-24 18:19:00,81.0,58.3,30.18,WNW,285,9.0,9.0,46,0.00,,,0.00,meteohub,2013-08-24 22:19:00,
2013-08-24 18:24:00,80.2,57.6,30.19,WSW,257,3.0,7.0,46,0.00,,,0.00,meteohub,2013-08-24 22:24:00,
2013-08-24 18:29:00,79.9,57.2,30.19,WNW,288,4.0,9.0,46,0.00,,,0.00,meteohub,2013-08-24 22:29:00,
2013-08-24 18:34:00,79.0,57.0,30.19,SW,221,1.0,9.0,47,0.00,,,0.00,meteohub,2013-08-24 22:34:00,
2013-08-24 18:39:00,78.8,56.8,30.19,North,349,4.0,9.0,47,0.00,,,0.00,meteohub,2013-08-24 22:39:00,
2013-08-24 18:44:00,78.6,56.7,30.19,WSW,258,4.0,9.0,47,0.00,,,0.00,meteohub,2013-08-24 22:44:00,
2013-08-24 18:49:00,78.4,56.5,30.19,NW,305,1.0,9.0,47,0.00,,,0.00,meteohub,2013-08-24 22:49:00,
2013-08-24 18:54:00,77.9,56.1,30.19,WSW,250,2.0,7.0,47,0.00,,,0.00,meteohub,2013-08-24 22:54:00,
2013-08-24 18:59:00,77.4,55.6,30.18,WSW,250,5.0,7.0,47,0.00,,,0.00,meteohub,2013-08-24 22:59:00,
2013-08-24 19:04:00,76.8,54.5,30.19,WNW,300,2.0,7.0,46,0.00,,,0.00,meteohub,2013-08-24 23:04:00,
2013-08-24 19:09:00,76.5,54.7,30.18,NW,314,4.0,8.0,47,0.00,,,0.00,meteohub,2013-08-24 23:09:00,
2013-08-24 19:14:00,75.9,54.9,30.19,SW,221,3.0,8.0,48,0.00,,,0.00,meteohub,2013-08-24 23:14:00,
2013-08-24 19:19:00,75.7,55.2,30.19,NW,313,2.0,8.0,49,0.00,,,0.00,meteohub,2013-08-24 23:19:00,
2013-08-24 19:24:00,75.4,55.4,30.19,WNW,300,2.0,5.0,50,0.00,,,0.00,meteohub,2013-08-24 23:24:00,
2013-08-24 19:29:00,74.8,55.0,30.19,West,268,2.0,5.0,50,0.00,,,0.00,meteohub,2013-08-24 23:29:00,
2013-08-24 19:34:00,74.7,54.9,30.19,SSW,212,0.0,5.0,50,0.00,,,0.00,meteohub,2013-08-24 23:34:00,
2013-08-24 19:39:00,74.5,54.7,30.19,NNW,339,1.0,4.0,50,0.00,,,0.00,meteohub,2013-08-24 23:39:00,
2013-08-24 19:44:00,74.3,54.0,30.19,NW,313,1.0,4.0,49,0.00,,,0.00,meteohub,2013-08-24 23:44:00,
2013-08-24 19:49:00,73.9,53.6,30.19,WNW,282,0.0,4.0,49,0.00,,,0.00,meteohub,2013-08-24 23:49:00,
2013-08-24 19:54:00,73.9,54.1,30.19,West,271,2.0,2.0,50,0.00,,,0.00,meteohub,2013-08-24 23:54:00,
2013-08-24 19:59:00,73.8,53.4,30.19,NW,305,1.0,2.0,49,0.00,,,0.00,meteohub,2013-08-24 23:59:00,
2013-08-24 20:04:00,73.6,53.8,30.19,NW,317,0.0,2.0,50,0.00,,,0.00,meteohub,2013-08-25 00:04:00,
2013-08-24 20:09:00,73.2,54.0,30.19,North,10,0.0,2.0,51,0.00,,,0.00,meteohub,2013-08-25 00:09:00,
2013-08-24 20:14:00,72.9,54.1,30.19,NNW,339,1.0,2.0,52,0.00,,,0.00,meteohub,2013-08-25 00:14:00,
2013-08-24 20:20:00,72.7,55.0,30.19,NNW,340,0.0,2.0,54,0.00,,,0.00,meteohub,2013-08-25 00:20:00,
2013-08-24 20:25:00,72.1,54.1,30.19,NNW,337,0.0,2.0,53,0.00,,,0.00,meteohub,2013-08-25 00:25:00,
2013-08-24 20:30:00,71.6,54.5,30.19,NNW,337,0.0,2.0,55,0.00,,,0.00,meteohub,2013-08-25 00:30:00,
2013-08-24 20:35:00,71.2,54.7,30.19,NNW,335,0.0,1.0,56,0.00,,,0.00,meteohub,2013-08-25 00:35:00,
2013-08-24 20:40:00,70.9,54.3,30.19,NNW,335,0.0,1.0,56,0.00,,,0.00,meteohub,2013-08-25 00:40:00,
2013-08-24 20:45:00,70.3,54.9,30.18,NNW,335,0.0,1.0,58,0.00,,,0.00,meteohub,2013-08-25 00:45:00,
2013-08-24 20:50:00,70.2,55.6,30.18,ESE,115,0.0,1.0,60,0.00,,,0.00,meteohub,2013-08-25 00:50:00,
2013-08-24 20:55:00,69.6,55.6,30.18,ESE,115,0.0,1.0,61,0.00,,,0.00,meteohub,2013-08-25 00:55:00,
2013-08-24 21:00:00,69.3,55.8,30.18,ESE,115,0.0,1.0,62,0.00,,,0.00,meteohub,2013-08-25 01:00:00,
2013-08-24 21:05:00,68.7,56.1,30.18,ESE,115,1.0,1.0,64,0.00,,,0.00,meteohub,2013-08-25 01:05:00,
2013-08-24 21:10:00,68.4,56.1,30.19,ESE,115,0.0,1.0,65,0.00,,,0.00,meteohub,2013-08-25 01:10:00,
2013-08-24 21:15:00,68.2,56.3,30.19,ESE,115,0.0,1.0,66,0.00,,,0.00,meteohub,2013-08-25 01:15:00,
2013-08-24 21:20:00,67.8,56.1,30.19,ESE,115,0.0,1.0,66,0.00,,,0.00,meteohub,2013-08-25 01:20:00,
2013-08-24 21:25:00,67.6,56.3,30.19,ESE,115,0.0,1.0,67,0.00,,,0.00,meteohub,2013-08-25 01:25:00,
2013-08-24 21:30:00,67.3,55.9,30.19,ESE,115,0.0,1.0,67,0.00,,,0.00,meteohub,2013-08-25 01:30:00,
2013-08-24 21:35:00,67.1,56.1,30.19,ESE,117,0.0,1.0,68,0.00,,,0.00,meteohub,2013-08-25 01:35:00,
2013-08-24 21:40:00,66.9,56.5,30.19,ESE,115,0.0,1.0,69,0.00,,,0.00,meteohub,2013-08-25 01:40:00,
2013-08-24 21:45:00,66.7,56.3,30.19,ESE,115,0.0,0.0,69,0.00,,,0.00,meteohub,2013-08-25 01:45:00,
2013-08-24 21:50:00,66.7,57.0,30.19,ESE,115,0.0,0.0,71,0.00,,,0.00,meteohub,2013-08-25 01:50:00,
2013-08-24 21:55:00,66.6,56.8,30.19,ESE,115,0.0,1.0,71,0.00,,,0.00,meteohub,2013-08-25 01:55:00,
2013-08-24 22:00:00,66.4,56.7,30.19,ESE,115,0.0,1.0,71,0.00,,,0.00,meteohub,2013-08-25 02:00:00,
2013-08-24 22:05:00,66.4,57.0,30.19,ESE,110,0.0,1.0,72,0.00,,,0.00,meteohub,2013-08-25 02:05:00,
2013-08-24 22:10:00,65.8,57.0,30.19,East,96,0.0,1.0,73,0.00,,,0.00,meteohub,2013-08-25 02:10:00,
2013-08-24 22:15:00,65.3,57.2,30.19,ESE,115,0.0,2.0,75,0.00,,,0.00,meteohub,2013-08-25 02:15:00,
2013-08-24 22:20:00,64.9,56.8,30.19,SSE,157,1.0,2.0,75,0.00,,,0.00,meteohub,2013-08-25 02:20:00,
2013-08-24 22:25:00,64.6,57.2,30.19,SSE,155,0.0,1.0,77,0.00,,,0.00,meteohub,2013-08-25 02:25:00,
2013-08-24 22:30:00,64.2,56.8,30.19,SSE,155,0.0,1.0,77,0.00,,,0.00,meteohub,2013-08-25 02:30:00,
2013-08-24 22:35:00,64.0,56.7,30.19,SSE,155,0.0,1.0,77,0.00,,,0.00,meteohub,2013-08-25 02:35:00,
2013-08-24 22:40:00,63.7,56.3,30.19,East,93,0.0,1.0,77,0.00,,,0.00,meteohub,2013-08-25 02:40:00,
2013-08-24 22:45:00,63.5,56.8,30.19,East,93,0.0,1.0,79,0.00,,,0.00,meteohub,2013-08-25 02:45:00,
2013-08-24 22:50:00,63.3,56.7,30.19,ESE,112,0.0,1.0,79,0.00,,,0.00,meteohub,2013-08-25 02:50:00,
2013-08-24 22:55:00,63.3,56.3,30.19,ESE,107,0.0,1.0,78,0.00,,,0.00,meteohub,2013-08-25 02:55:00,
2013-08-24 23:00:00,63.3,56.7,30.19,East,88,1.0,2.0,79,0.00,,,0.00,meteohub,2013-08-25 03:00:00,
2013-08-24 23:05:00,63.1,56.1,30.19,East,100,1.0,2.0,78,0.00,,,0.00,meteohub,2013-08-25 03:05:00,
2013-08-24 23:10:00,63.0,56.3,30.19,SE,124,1.0,3.0,79,0.00,,,0.00,meteohub,2013-08-25 03:10:00,
2013-08-24 23:15:00,63.0,56.3,30.19,SSE,155,0.0,3.0,79,0.00,,,0.00,meteohub,2013-08-25 03:15:00,
2013-08-24 23:20:00,62.8,56.5,30.19,ESE,117,0.0,3.0,80,0.00,,,0.00,meteohub,2013-08-25 03:20:00,
2013-08-24 23:25:00,62.8,56.5,30.19,ESE,116,0.0,3.0,80,0.00,,,0.00,meteohub,2013-08-25 03:25:00,
2013-08-24 23:30:00,62.4,56.1,30.19,ESE,116,0.0,3.0,80,0.00,,,0.00,meteohub,2013-08-25 03:30:00,
2013-08-24 23:35:00,62.2,55.9,30.19,ESE,116,0.0,0.0,80,0.00,,,0.00,meteohub,2013-08-25 03:35:00,
2013-08-24 23:40:00,62.1,56.1,30.18,ESE,116,0.0,0.0,81,0.00,,,0.00,meteohub,2013-08-25 03:40:00,
2013-08-24 23:45:00,62.1,55.8,30.18,SE,145,1.0,1.0,80,0.00,,,0.00,meteohub,2013-08-25 03:45:00,
2013-08-24 23:50:00,62.2,55.6,30.18,SSE,155,0.0,2.0,79,0.00,,,0.00,meteohub,2013-08-25 03:50:00,
2013-08-24 23:56:00,62.2,55.6,30.18,East,86,0.0,3.0,79,0.00,,,0.00,meteohub,2013-08-25 03:56:00,